Location: Kailua
(21.4020°N, 157.7390°W)
Time: 19:04:27
(UTC-10:00)

Daily predictions for brighter satellites

Satellite Brightness Start Highest point End
(mag) Time Altitude Azimuth Time Altitude Azimuth Time Altitude Azimuth
Meteor 1-11 Rocket 3.7 19:07:14 10° S 19:12:51 66° E 19:18:22 10° NNE
Cosmos 1503 Rocket 4.5 19:11:23 10° NNW 19:16:43 69° WSW 19:22:02 10° S
HJ-1C 4.0 19:16:47 10° SE 19:19:47 34° ENE 19:22:47 10° N
Cosmos 1315 Rocket 2.8 19:17:42 10° S 19:21:36 62° E 19:25:32 10° NNE
Cosmos 1400 Rocket 3.6 19:18:01 10° SSW 19:22:06 61° W 19:26:10 10° N
NOSS 2-1 (D) 3.8 19:18:16 10° SW 19:22:10 63° WNW 19:26:02 10° NNE
BREEZE-M DEB (TANK) 4.4 19:13:41 10° NW 19:22:21 28° NNE 19:25:44 10° E
GOES 2 Rocket 4.1 19:19:16 10° WNW 19:23:05 34° N 19:27:10 10° ENE
NOSS 2-1 (C) 3.8 19:19:16 10° SW 19:23:11 63° WNW 19:27:03 10° NNE
Cosmos 1544 Rocket 4.5 19:20:50 10° SSE 19:24:30 27° E 19:28:10 10° NNE
Okean 1 Rocket 4.1 19:20:35 10° SSW 19:24:52 52° W 19:29:08 10° N
Centaur D-1A AC-32 2.9 19:18:30 10° W 19:25:45 54° N 19:28:55 10° ENE
COS B Rocket 3.4 19:24:17 10° NNW 19:26:25 40° W 19:28:36 10° SSW
Palapa 6 Rocket 3.4 19:20:45 10° W 19:26:34 80° N 19:31:04 11° E
SJ-6B 3.4 19:29:01 10° S 19:32:43 57° W 19:36:24 10° NNW
Cosmos 2208 Rocket 4.3 19:33:37 10° S 19:38:35 45° E 19:43:38 10° NNE
Cosmos 1833 4.2 19:34:15 10° NNW 19:39:58 84° ENE 19:45:42 10° SSE
H-2A R/B 4.1 19:40:51 17° ESE 19:42:23 21° ENE 19:45:18 10° NNE
ALOS 2.9 19:41:45 11° SE 19:45:45 34° ENE 19:49:58 10° N
Cosmos 2219 3.7 19:40:45 10° N 19:45:59 40° ENE 19:50:11 15° SE
Okean 1-7 Rocket 3.8 19:44:47 10° N 19:49:09 74° W 19:53:32 10° S
Cosmos 2278 3.6 19:47:33 10° S 19:53:06 63° ESE 19:58:43 10° NNE
EO 1 Delta rocket 4.1 19:50:50 10° NNE 19:55:37 59° E 20:01:23 10° S
Cosmos 1697 Rocket 4.5 19:58:29 13° ENE 19:58:29 13° ENE 19:59:27 10° ENE
CZ-2D R/B 3.8 19:54:04 23° SE 19:55:47 36° ENE 19:59:20 10° N
Cosmos 1821 Rocket 3.9 19:50:20 10° S 19:56:30 86° E 20:02:36 10° N
Meteor 2-4 Rocket 4.0 19:51:02 10° N 19:56:45 51° E 20:02:29 10° SSE
Spot 2 Rocket 3.9 19:51:42 10° S 19:56:46 67° WSW 20:01:50 10° NNW
Centaur AC-119 1.7 19:53:35 10° WNW 19:57:10 52° SSW 19:57:41 38° SSE
Cosmos 1570 Rocket 4.0 19:52:50 10° S 19:58:10 85° ESE 20:03:28 10° NNE
Cosmos 1605 Rocket 4.2 19:53:13 10° SSE 19:59:17 47° E 20:05:18 10° NNE
Cosmos 1536 4.3 19:58:26 10° SSW 20:02:09 38° W 20:05:53 10° NNW
Hubble Space Telescope 2.2 20:01:53 10° WNW 20:05:35 30° N 20:07:46 19° NE
Cosmos 2369 3.6 20:00:04 10° S 20:05:42 74° ESE 20:11:21 10° NNE
CZ-4B DEB 2.8 20:05:24 20° S 20:07:34 81° WSW 20:10:51 10° NNW
Meteor 2-16 Rocket 4.4 20:04:30 10° S 20:10:35 89° W 20:16:40 10° N
Fermi 3.8 20:06:40 10° WSW 20:10:40 57° SSE 20:11:34 44° ESE
Meteor 1-23 Rocket 4.2 20:06:03 10° N 20:11:40 66° E 20:16:17 16° SSE
FengYun 1-2 T 4.4 20:07:17 10° S 20:12:56 75° WSW 20:18:34 10° NNW
ATLAS 3B CENTAUR R/B 2.7 20:14:32 10° NNW 20:14:58 12° NNW 20:14:58 12° NNW
Cosmos 1346 Rocket 4.0 20:12:14 10° NNE 20:14:40 26° NE 20:14:40 26° NE
USA 186 2.2 20:24:30 54° N 20:24:30 54° N 20:27:01 10° N
BREEZE-M DEB 4.3 20:20:43 10° NW 20:24:14 70° NW 20:24:14 70° NW
CZ-3C R/B 3.2 19:17:02 10° W 20:27:29 87° S 20:31:47 34° E
Cosmos 1455 Rocket 3.7 20:24:22 10° SSW 20:28:35 55° W 20:32:49 10° N
Cosmos 1892 Rocket 3.6 20:28:02 10° N 20:32:30 78° W 20:34:06 39° S
Resurs 01 Rocket 4.1 20:30:40 10° SW 20:33:55 20° W 20:37:11 10° NW
Cosmos 2123 Rocket 3.8 20:32:45 10° N 20:38:55 77° E 20:41:13 41° SSE
SL-24 R/B - RUBIN 2 4.1 20:35:03 10° SSW 20:40:22 84° WNW 20:46:29 10° NNE
Iridium 4 Rocket 4.3 20:38:36 10° NNE 20:41:38 33° NNE 20:41:38 33° NNE
Cosmos 1975 3.7 20:46:31 43° N 20:46:31 43° N 20:49:22 10° N
ERS-1 Rocket 3.6 20:47:22 42° NNE 20:47:22 42° NNE 20:51:02 10° N
Okean 2 3.9 20:42:25 10° NNW 20:46:29 57° W 20:46:44 56° WSW
Cosmos 2227 Rocket 3.2 20:48:21 10° N 20:52:04 33° NE 20:52:04 33° NE
Cosmos 1153 Rocket 4.4 20:49:02 19° S 20:53:40 83° W 20:59:52 10° N
GPS 2-15 Rocket1 4.2 20:52:32 10° WSW 20:55:31 36° SW 20:55:31 36° SW
Cosmos 1656 4.0 20:54:19 10° SSW 20:59:55 63° WNW 21:05:29 10° N
NATO 3D Rocket 4.1 20:52:28 10° WSW 21:00:43 64° S 21:00:43 64° S
Nimbus 7 Rocket 4.4 21:02:33 10° NNE 21:08:37 83° WNW 21:08:56 79° WSW
Cosmos 2297 Rocket 3.7 21:04:24 10° N 21:07:02 25° NNE 21:07:02 25° NNE
Milstar 3 Cent rocket 4.0 21:13:58 10° W 21:32:56 63° N 21:35:48 49° NE
Cosmos 1697 Rocket 4.1 21:39:54 35° NW 21:39:54 35° NW 21:44:24 10° N
Hubble Space Telescope 4.1 21:43:06 10° WNW 21:43:09 10° WNW 21:43:09 10° WNW
